Time,TemperatureF,DewpointF,PressureIn,WindDirection,WindDirectionDegrees,WindSpeedMPH,WindSpeedGustMPH,Humidity,HourlyPrecipIn,Conditions,Clouds,dailyrainin,SoftwareType,DateUTC
2013-08-23 00:00:00,73.7,68.2,30.04,WSW,242,0.0,1.0,83,0.00,,,0.00,VWS V14.01,2013-08-23 04:00:00,
2013-08-23 00:01:00,73.7,68.2,30.04,WSW,242,0.0,1.0,83,0.00,,,0.00,VWS V14.01,2013-08-23 04:01:00,
2013-08-23 00:06:00,73.7,68.6,30.04,WSW,242,0.0,1.0,84,0.00,,,0.00,VWS V14.01,2013-08-23 04:06:00,
2013-08-23 00:10:00,73.7,68.2,30.04,WSW,242,0.0,1.0,83,0.00,,,0.00,VWS V14.01,2013-08-23 04:10:00,
2013-08-23 00:11:00,73.7,68.2,30.04,WSW,242,0.0,1.0,83,0.00,,,0.00,VWS V14.01,2013-08-23 04:11:00,
2013-08-23 00:17:00,73.7,68.2,30.04,WSW,242,0.0,1.0,83,0.00,,,0.00,VWS V14.01,2013-08-23 04:17:00,
2013-08-23 00:20:00,73.7,68.6,30.04,WSW,242,0.0,1.0,84,0.00,,,0.00,VWS V14.01,2013-08-23 04:20:00,
2013-08-23 00:22:00,73.7,68.6,30.04,WSW,242,0.0,1.0,84,0.00,,,0.00,VWS V14.01,2013-08-23 04:22:00,
2013-08-23 00:27:00,73.7,68.6,30.04,WSW,242,0.0,1.0,84,0.00,,,0.00,VWS V14.01,2013-08-23 04:27:00,
2013-08-23 00:30:00,73.5,68.4,30.04,WSW,242,0.0,1.0,84,0.00,,,0.00,VWS V14.01,2013-08-23 04:30:00,
2013-08-23 00:32:00,73.5,68.4,30.04,WSW,242,0.0,1.0,84,0.00,,,0.00,VWS V14.01,2013-08-23 04:32:00,
2013-08-23 00:37:00,73.5,68.4,30.04,WSW,242,0.0,1.0,84,0.00,,,0.00,VWS V14.01,2013-08-23 04:37:00,
2013-08-23 00:40:00,73.5,68.4,30.04,WSW,242,0.0,1.0,84,0.00,,,0.00,VWS V14.01,2013-08-23 04:40:00,
2013-08-23 00:42:00,73.3,68.5,30.04,WSW,242,0.0,1.0,85,0.00,,,0.00,VWS V14.01,2013-08-23 04:42:00,
2013-08-23 00:47:00,73.2,68.4,30.04,WSW,242,0.0,1.0,85,0.00,,,0.00,VWS V14.01,2013-08-23 04:47:00,
2013-08-23 00:50:00,73.2,68.4,30.04,WSW,242,0.0,1.0,85,0.00,,,0.00,VWS V14.01,2013-08-23 04:50:00,
2013-08-23 00:52:00,73.0,68.2,30.04,WSW,242,0.0,1.0,85,0.00,,,0.00,VWS V14.01,2013-08-23 04:52:00,
2013-08-23 00:57:00,73.0,68.6,30.04,WSW,242,0.0,1.0,86,0.00,,,0.00,VWS V14.01,2013-08-23 04:57:00,
2013-08-23 01:00:00,73.0,68.6,30.04,WSW,242,0.0,1.0,86,0.00,,,0.00,VWS V14.01,2013-08-23 05:00:00,
2013-08-23 01:02:00,72.8,68.4,30.04,WSW,242,0.0,1.0,86,0.00,,,0.00,VWS V14.01,2013-08-23 05:02:00,
2013-08-23 01:07:00,72.8,68.4,30.04,WSW,242,0.0,1.0,86,0.00,,,0.00,VWS V14.01,2013-08-23 05:07:00,
2013-08-23 01:10:00,72.8,68.4,30.04,WSW,242,0.0,1.0,86,0.00,,,0.00,VWS V14.01,2013-08-23 05:10:00,
2013-08-23 01:12:00,72.8,68.4,30.04,WSW,242,0.0,1.0,86,0.00,,,0.00,VWS V14.01,2013-08-23 05:12:00,
2013-08-23 01:17:00,72.7,68.3,30.03,WSW,242,0.0,1.0,86,0.00,,,0.00,VWS V14.01,2013-08-23 05:17:00,
2013-08-23 01:20:00,72.7,68.3,30.03,WSW,242,0.0,1.0,86,0.00,,,0.00,VWS V14.01,2013-08-23 05:20:00,
2013-08-23 01:22:00,72.5,68.1,30.03,WSW,242,0.0,1.0,86,0.00,,,0.00,VWS V14.01,2013-08-23 05:22:00,
2013-08-23 01:27:00,72.5,68.4,30.03,WSW,242,0.0,1.0,87,0.00,,,0.00,VWS V14.01,2013-08-23 05:27:00,
2013-08-23 01:30:00,72.3,68.2,30.02,WSW,242,0.0,1.0,87,0.00,,,0.00,VWS V14.01,2013-08-23 05:30:00,
2013-08-23 01:32:00,72.3,68.2,30.02,WSW,242,0.0,1.0,87,0.00,,,0.00,VWS V14.01,2013-08-23 05:32:00,
2013-08-23 01:37:00,72.1,68.0,30.02,WSW,242,0.0,1.0,87,0.00,,,0.00,VWS V14.01,2013-08-23 05:37:00,
2013-08-23 01:40:00,72.1,68.0,30.02,WSW,242,0.0,1.0,87,0.00,,,0.00,VWS V14.01,2013-08-23 05:40:00,
2013-08-23 01:42:00,72.1,68.0,30.02,WSW,242,0.0,1.0,87,0.00,,,0.00,VWS V14.01,2013-08-23 05:42:00,
2013-08-23 01:47:00,72.0,68.3,30.02,WSW,242,0.0,1.0,88,0.00,,,0.00,VWS V14.01,2013-08-23 05:47:00,
2013-08-23 01:50:00,72.0,68.3,30.02,WSW,242,0.0,1.0,88,0.00,,,0.00,VWS V14.01,2013-08-23 05:50:00,
2013-08-23 01:52:00,72.0,68.3,30.02,WSW,242,0.0,1.0,88,0.00,,,0.00,VWS V14.01,2013-08-23 05:52:00,
2013-08-23 01:57:00,71.8,68.4,30.02,WSW,242,0.0,1.0,89,0.00,,,0.00,VWS V14.01,2013-08-23 05:57:00,
2013-08-23 02:00:00,71.8,68.4,30.02,WSW,242,0.0,1.0,89,0.00,,,0.00,VWS V14.01,2013-08-23 06:00:00,
2013-08-23 02:02:00,71.8,68.4,30.02,WSW,242,0.0,1.0,89,0.00,,,0.00,VWS V14.01,2013-08-23 06:02:00,
2013-08-23 02:07:00,71.8,68.4,30.02,WSW,242,0.0,1.0,89,0.00,,,0.00,VWS V14.01,2013-08-23 06:07:00,
2013-08-23 02:10:00,71.8,68.4,30.02,WSW,242,0.0,1.0,89,0.00,,,0.00,VWS V14.01,2013-08-23 06:10:00,
2013-08-23 02:12:00,71.8,68.4,30.02,WSW,242,0.0,1.0,89,0.00,,,0.00,VWS V14.01,2013-08-23 06:12:00,
2013-08-23 02:17:00,71.6,68.2,30.01,WSW,242,0.0,1.0,89,0.00,,,0.00,VWS V14.01,2013-08-23 06:17:00,
2013-08-23 02:20:00,71.6,68.2,30.01,WSW,242,0.0,1.0,89,0.00,,,0.00,VWS V14.01,2013-08-23 06:20:00,
2013-08-23 02:22:00,71.6,68.2,30.01,WSW,242,0.0,1.0,89,0.00,,,0.00,VWS V14.01,2013-08-23 06:22:00,
2013-08-23 02:27:00,71.5,68.1,30.01,WSW,242,0.0,1.0,89,0.00,,,0.00,VWS V14.01,2013-08-23 06:27:00,
2013-08-23 02:30:00,71.5,68.1,30.01,WSW,242,0.0,1.0,89,0.00,,,0.00,VWS V14.01,2013-08-23 06:30:00,
2013-08-23 02:32:00,71.3,67.9,30.01,WSW,242,0.0,1.0,89,0.00,,,0.00,VWS V14.01,2013-08-23 06:32:00,
2013-08-23 02:37:00,71.3,68.2,30.01,WSW,242,0.0,1.0,90,0.00,,,0.00,VWS V14.01,2013-08-23 06:37:00,
2013-08-23 02:40:00,71.3,68.2,30.01,WSW,242,0.0,1.0,90,0.00,,,0.00,VWS V14.01,2013-08-23 06:40:00,
2013-08-23 02:42:00,71.1,67.7,30.01,WSW,242,0.0,1.0,89,0.00,,,0.00,VWS V14.01,2013-08-23 06:42:00,
2013-08-23 02:47:00,71.1,67.7,30.01,WSW,242,0.0,1.0,89,0.00,,,0.00,VWS V14.01,2013-08-23 06:47:00,
2013-08-23 02:50:00,70.9,67.5,30.01,WSW,242,0.0,1.0,89,0.00,,,0.00,VWS V14.01,2013-08-23 06:50:00,
2013-08-23 02:52:00,70.9,67.5,30.01,WSW,242,0.0,1.0,89,0.00,,,0.00,VWS V14.01,2013-08-23 06:52:00,
2013-08-23 02:57:00,70.8,67.4,30.01,WSW,242,0.0,1.0,89,0.00,,,0.00,VWS V14.01,2013-08-23 06:57:00,
2013-08-23 03:00:00,70.8,67.4,30.01,WSW,242,0.0,1.0,89,0.00,,,0.00,VWS V14.01,2013-08-23 07:00:00,
2013-08-23 03:02:00,70.8,67.4,30.01,WSW,242,0.0,1.0,89,0.00,,,0.00,VWS V14.01,2013-08-23 07:02:00,
2013-08-23 03:07:00,70.6,67.2,30.01,WSW,242,0.0,1.0,89,0.00,,,0.00,VWS V14.01,2013-08-23 07:07:00,
2013-08-23 03:10:00,70.6,67.2,30.01,WSW,242,0.0,1.0,89,0.00,,,0.00,VWS V14.01,2013-08-23 07:10:00,
2013-08-23 03:17:00,70.4,67.0,30.01,WSW,242,0.0,1.0,89,0.00,,,0.00,VWS V14.01,2013-08-23 07:17:00,
2013-08-23 03:20:00,70.4,67.0,30.01,WSW,242,0.0,1.0,89,0.00,,,0.00,VWS V14.01,2013-08-23 07:20:00,
2013-08-23 03:27:00,70.4,66.7,30.01,WSW,242,0.0,1.0,88,0.00,,,0.00,VWS V14.01,2013-08-23 07:27:00,
2013-08-23 03:30:00,70.4,66.7,30.01,WSW,242,0.0,1.0,88,0.00,,,0.00,VWS V14.01,2013-08-23 07:30:00,
2013-08-23 03:32:00,70.4,67.0,30.01,WSW,242,0.0,1.0,89,0.00,,,0.00,VWS V14.01,2013-08-23 07:32:00,
2013-08-23 03:37:00,70.3,66.9,30.01,WSW,242,0.0,1.0,89,0.00,,,0.00,VWS V14.01,2013-08-23 07:37:00,
2013-08-23 03:40:00,70.3,66.9,30.01,WSW,242,0.0,1.0,89,0.00,,,0.00,VWS V14.01,2013-08-23 07:40:00,
2013-08-23 03:42:00,70.3,66.9,30.01,WSW,242,0.0,1.0,89,0.00,,,0.00,VWS V14.01,2013-08-23 07:42:00,
2013-08-23 03:47:00,70.3,66.9,30.02,WSW,242,0.0,1.0,89,0.00,,,0.00,VWS V14.01,2013-08-23 07:47:00,
2013-08-23 03:50:00,70.3,66.9,30.02,WSW,242,0.0,1.0,89,0.00,,,0.00,VWS V14.01,2013-08-23 07:50:00,
2013-08-23 03:52:00,70.3,66.9,30.02,WSW,242,0.0,1.0,89,0.00,,,0.00,VWS V14.01,2013-08-23 07:52:00,
2013-08-23 03:57:00,70.3,66.9,30.02,WSW,242,0.0,1.0,89,0.00,,,0.00,VWS V14.01,2013-08-23 07:57:00,
2013-08-23 04:00:00,70.3,66.9,30.02,WSW,242,0.0,1.0,89,0.00,,,0.00,VWS V14.01,2013-08-23 08:00:00,
2013-08-23 04:07:00,70.3,66.9,30.02,WSW,242,0.0,1.0,89,0.00,,,0.00,VWS V14.01,2013-08-23 08:07:00,
2013-08-23 04:10:00,70.3,67.2,30.02,WSW,242,0.0,1.0,90,0.00,,,0.00,VWS V14.01,2013-08-23 08:10:00,
2013-08-23 04:12:00,70.3,67.2,30.02,WSW,242,0.0,1.0,90,0.00,,,0.00,VWS V14.01,2013-08-23 08:12:00,
2013-08-23 04:17:00,70.6,67.2,30.01,WSW,242,0.0,1.0,89,0.00,,,0.00,VWS V14.01,2013-08-23 08:17:00,
2013-08-23 04:20:00,70.3,67.2,30.02,WSW,242,0.0,1.0,90,0.00,,,0.00,VWS V14.01,2013-08-23 08:20:00,
2013-08-23 04:22:00,70.3,67.2,30.02,WSW,242,0.0,1.0,90,0.00,,,0.00,VWS V14.01,2013-08-23 08:22:00,
2013-08-23 04:27:00,70.4,67.0,30.01,WSW,242,0.0,1.0,89,0.00,,,0.00,VWS V14.01,2013-08-23 08:27:00,
2013-08-23 04:30:00,70.4,67.3,30.02,WSW,242,0.0,1.0,90,0.00,,,0.00,VWS V14.01,2013-08-23 08:30:00,
2013-08-23 04:40:00,70.4,67.3,30.02,WSW,242,0.0,1.0,90,0.00,,,0.00,VWS V14.01,2013-08-23 08:40:00,
2013-08-23 04:44:00,70.3,66.9,30.01,WSW,242,0.0,1.0,89,0.00,,,0.00,VWS V14.01,2013-08-23 08:44:00,
2013-08-23 04:50:00,70.3,67.2,30.02,WSW,242,0.0,1.0,90,0.00,,,0.00,VWS V14.01,2013-08-23 08:50:00,
2013-08-23 04:54:00,70.3,66.9,30.02,WSW,242,0.0,1.0,89,0.00,,,0.00,VWS V14.01,2013-08-23 08:54:00,
2013-08-23 05:00:00,69.9,67.2,30.04,North,5,0.0,1.0,91,0.00,,,0.00,VWS V14.01,2013-08-23 09:00:00,
2013-08-23 05:04:00,70.3,66.9,30.02,WSW,242,0.0,1.0,89,0.00,,,0.00,VWS V14.01,2013-08-23 09:04:00,
2013-08-23 05:10:00,69.8,67.1,30.04,NNW,330,0.0,1.0,91,0.00,,,0.00,VWS V14.01,2013-08-23 09:10:00,
2013-08-23 05:20:00,69.9,67.2,30.04,NNW,330,0.0,1.0,91,0.00,,,0.00,VWS V14.01,2013-08-23 09:20:00,
2013-08-23 05:22:00,69.9,67.2,30.04,NNW,330,0.0,1.0,91,0.00,,,0.00,VWS V14.01,2013-08-23 09:22:00,
2013-08-23 05:24:00,70.3,67.2,30.02,WSW,242,0.0,1.0,90,0.00,,,0.00,VWS V14.01,2013-08-23 09:24:00,
2013-08-23 05:27:00,69.9,67.2,30.04,NNW,330,0.0,1.0,91,0.00,,,0.00,VWS V14.01,2013-08-23 09:27:00,
2013-08-23 05:30:00,69.9,67.2,30.05,NNW,330,0.0,1.0,91,0.00,,,0.00,VWS V14.01,2013-08-23 09:30:00,
2013-08-23 05:32:00,70.4,67.3,30.02,WSW,242,0.0,1.0,90,0.00,,,0.00,VWS V14.01,2013-08-23 09:32:00,
2013-08-23 05:37:00,70.4,67.3,30.02,WSW,242,0.0,1.0,90,0.00,,,0.00,VWS V14.01,2013-08-23 09:37:00,
2013-08-23 05:40:00,69.9,67.2,30.05,NNW,330,0.0,1.0,91,0.00,,,0.00,VWS V14.01,2013-08-23 09:40:00,
2013-08-23 05:42:00,70.4,67.3,30.02,WSW,242,0.0,1.0,90,0.00,,,0.00,VWS V14.01,2013-08-23 09:42:00,
2013-08-23 05:47:00,70.4,67.3,30.02,WSW,242,0.0,1.0,90,0.00,,,0.00,VWS V14.01,2013-08-23 09:47:00,
2013-08-23 05:50:00,69.8,67.1,30.04,NNW,330,0.0,1.0,91,0.00,,,0.00,VWS V14.01,2013-08-23 09:50:00,
2013-08-23 05:52:00,70.3,67.2,30.02,WSW,242,0.0,1.0,90,0.00,,,0.00,VWS V14.01,2013-08-23 09:52:00,
2013-08-23 05:57:00,70.1,67.0,30.02,NNW,332,4.0,4.0,90,0.00,,,0.00,VWS V14.01,2013-08-23 09:57:00,
2013-08-23 06:00:00,69.8,67.1,30.05,NNW,330,0.0,1.0,91,0.00,,,0.00,VWS V14.01,2013-08-23 10:00:00,
2013-08-23 06:02:00,70.1,67.4,30.02,NNW,328,0.0,1.0,91,0.00,,,0.00,VWS V14.01,2013-08-23 10:02:00,
2013-08-23 06:07:00,69.9,67.2,30.04,North,360,0.0,1.0,91,0.00,,,0.00,VWS V14.01,2013-08-23 10:07:00,
2013-08-23 06:10:00,69.9,67.2,30.05,NNW,330,0.0,1.0,91,0.00,,,0.00,VWS V14.01,2013-08-23 10:10:00,
2013-08-23 06:12:00,69.8,67.1,30.04,NW,326,1.0,1.0,91,0.00,,,0.00,VWS V14.01,2013-08-23 10:12:00,
2013-08-23 06:17:00,69.9,67.2,30.04,NNW,330,0.0,1.0,91,0.00,,,0.00,VWS V14.01,2013-08-23 10:17:00,
2013-08-23 06:18:00,69.9,66.8,30.05,NNW,330,0.0,1.0,90,0.00,,,0.00,VWS V14.01,2013-08-23 10:18:00,
2013-08-23 06:20:00,69.9,66.8,30.05,NNW,330,0.0,1.0,90,0.00,,,0.00,VWS V14.01,2013-08-23 10:20:00,
2013-08-23 06:22:00,69.9,67.2,30.04,NNW,330,0.0,1.0,91,0.00,,,0.00,VWS V14.01,2013-08-23 10:22:00,
2013-08-23 06:30:00,69.9,66.8,30.06,NNW,330,0.0,1.0,90,0.00,,,0.00,VWS V14.01,2013-08-23 10:30:00,
2013-08-23 06:37:00,69.9,67.2,30.05,NNW,330,0.0,1.0,91,0.00,,,0.00,VWS V14.01,2013-08-23 10:37:00,
2013-08-23 06:40:00,70.1,67.0,30.06,NNW,330,0.0,1.0,90,0.00,,,0.00,VWS V14.01,2013-08-23 10:40:00,
2013-08-23 06:42:00,69.9,67.2,30.05,NNW,330,0.0,1.0,91,0.00,,,0.00,VWS V14.01,2013-08-23 10:42:00,
2013-08-23 06:47:00,69.8,67.1,30.05,NNW,330,0.0,1.0,91,0.00,,,0.00,VWS V14.01,2013-08-23 10:47:00,
2013-08-23 06:50:00,70.1,66.7,30.06,NNW,330,0.0,1.0,89,0.00,,,0.00,VWS V14.01,2013-08-23 10:50:00,
2013-08-23 06:52:00,69.8,67.1,30.04,NNW,330,0.0,1.0,91,0.00,,,0.00,VWS V14.01,2013-08-23 10:52:00,
2013-08-23 06:57:00,69.8,67.1,30.04,NNW,330,0.0,1.0,91,0.00,,,0.00,VWS V14.01,2013-08-23 10:57:00,
2013-08-23 07:00:00,70.4,67.0,30.06,NNW,330,0.0,1.0,89,0.00,,,0.00,VWS V14.01,2013-08-23 11:00:00,
2013-08-23 07:02:00,69.8,67.1,30.04,NNW,330,0.0,1.0,91,0.00,,,0.00,VWS V14.01,2013-08-23 11:02:00,
2013-08-23 07:07:00,69.9,67.2,30.05,NNW,330,0.0,1.0,91,0.00,,,0.00,VWS V14.01,2013-08-23 11:07:00,
2013-08-23 07:10:00,70.8,67.1,30.06,NNW,330,0.0,1.0,88,0.00,,,0.00,VWS V14.01,2013-08-23 11:10:00,
2013-08-23 07:12:00,69.9,67.2,30.05,NNW,330,0.0,1.0,91,0.00,,,0.00,VWS V14.01,2013-08-23 11:12:00,
2013-08-23 07:17:00,69.9,66.8,30.05,NNW,330,0.0,1.0,90,0.00,,,0.00,VWS V14.01,2013-08-23 11:17:00,
2013-08-23 07:20:00,71.1,67.0,30.06,NNW,330,0.0,1.0,87,0.00,,,0.00,VWS V14.01,2013-08-23 11:20:00,
2013-08-23 07:23:00,71.3,66.9,30.06,NNW,330,0.0,1.0,86,0.00,,,0.00,VWS V14.01,2013-08-23 11:23:00,
2013-08-23 07:24:00,69.9,66.8,30.05,NNW,330,0.0,1.0,90,0.00,,,0.00,VWS V14.01,2013-08-23 11:24:00,
2013-08-23 07:30:00,71.5,66.8,30.07,NNW,334,0.0,1.0,85,0.00,,,0.00,VWS V14.01,2013-08-23 11:30:00,
2013-08-23 07:32:00,69.9,66.8,30.05,NNW,330,0.0,1.0,90,0.00,,,0.00,VWS V14.01,2013-08-23 11:32:00,
2013-08-23 07:37:00,69.9,66.8,30.06,NNW,330,0.0,1.0,90,0.00,,,0.00,VWS V14.01,2013-08-23 11:37:00,
2013-08-23 07:40:00,71.6,66.2,30.07,NNW,334,0.0,1.0,83,0.00,,,0.00,VWS V14.01,2013-08-23 11:40:00,
2013-08-23 07:42:00,70.1,67.0,30.06,NNW,330,0.0,1.0,90,0.00,,,0.00,VWS V14.01,2013-08-23 11:42:00,
2013-08-23 07:47:00,70.1,67.0,30.06,NNW,330,0.0,1.0,90,0.00,,,0.00,VWS V14.01,2013-08-23 11:47:00,
2013-08-23 07:50:00,71.8,66.4,30.07,NNW,334,0.0,1.0,83,0.00,,,0.00,VWS V14.01,2013-08-23 11:50:00,
2013-08-23 07:52:00,70.1,66.7,30.06,NNW,330,0.0,1.0,89,0.00,,,0.00,VWS V14.01,2013-08-23 11:52:00,
2013-08-23 07:57:00,70.3,66.9,30.06,NNW,330,0.0,1.0,89,0.00,,,0.00,VWS V14.01,2013-08-23 11:57:00,
2013-08-23 08:00:00,72.0,66.2,30.07,NNW,334,0.0,1.0,82,0.00,,,0.00,VWS V14.01,2013-08-23 12:00:00,
2013-08-23 08:02:00,70.3,66.9,30.06,NNW,330,0.0,1.0,89,0.00,,,0.00,VWS V14.01,2013-08-23 12:02:00,
2013-08-23 08:07:00,70.4,67.0,30.06,NNW,330,0.0,1.0,89,0.00,,,0.00,VWS V14.01,2013-08-23 12:07:00,
2013-08-23 08:10:00,72.1,66.7,30.07,NNW,334,0.0,1.0,83,0.00,,,0.00,VWS V14.01,2013-08-23 12:10:00,
2013-08-23 08:12:00,70.6,66.9,30.06,NNW,330,0.0,1.0,88,0.00,,,0.00,VWS V14.01,2013-08-23 12:12:00,
2013-08-23 08:17:00,70.8,67.1,30.06,NNW,330,0.0,1.0,88,0.00,,,0.00,VWS V14.01,2013-08-23 12:17:00,
2013-08-23 08:20:00,72.3,66.5,30.07,NNW,334,0.0,1.0,82,0.00,,,0.00,VWS V14.01,2013-08-23 12:20:00,
2013-08-23 08:22:00,71.1,67.0,30.06,NNW,330,0.0,1.0,87,0.00,,,0.00,VWS V14.01,2013-08-23 12:22:00,
2013-08-23 08:30:00,72.7,66.9,30.07,NNW,335,0.0,1.0,82,0.00,,,0.00,VWS V14.01,2013-08-23 12:30:00,
2013-08-23 08:32:00,71.3,66.6,30.06,NNW,334,0.0,1.0,85,0.00,,,0.00,VWS V14.01,2013-08-23 12:32:00,
2013-08-23 08:37:00,71.5,66.4,30.07,NNW,334,0.0,1.0,84,0.00,,,0.00,VWS V14.01,2013-08-23 12:37:00,
2013-08-23 08:40:00,72.8,66.3,30.07,NNW,335,0.0,1.0,80,0.00,,,0.00,VWS V14.01,2013-08-23 12:40:00,
2013-08-23 08:42:00,71.6,66.2,30.07,NNW,334,0.0,1.0,83,0.00,,,0.00,VWS V14.01,2013-08-23 12:42:00,
2013-08-23 08:47:00,71.6,66.2,30.07,NNW,334,0.0,1.0,83,0.00,,,0.00,VWS V14.01,2013-08-23 12:47:00,
2013-08-23 08:50:00,73.0,67.2,30.07,NNW,335,0.0,1.0,82,0.00,,,0.00,VWS V14.01,2013-08-23 12:50:00,
2013-08-23 08:52:00,71.8,66.4,30.07,NNW,334,0.0,1.0,83,0.00,,,0.00,VWS V14.01,2013-08-23 12:52:00,
2013-08-23 08:57:00,71.8,66.0,30.07,NNW,334,0.0,1.0,82,0.00,,,0.00,VWS V14.01,2013-08-23 12:57:00,
2013-08-23 09:00:00,72.8,66.6,30.07,NNW,335,0.0,1.0,81,0.00,,,0.00,VWS V14.01,2013-08-23 13:00:00,
2013-08-23 09:02:00,72.0,66.2,30.07,NNW,334,0.0,1.0,82,0.00,,,0.00,VWS V14.01,2013-08-23 13:02:00,
2013-08-23 09:07:00,72.0,66.6,30.07,NNW,334,0.0,1.0,83,0.00,,,0.00,VWS V14.01,2013-08-23 13:07:00,
2013-08-23 09:10:00,72.8,66.6,30.07,NNW,335,0.0,1.0,81,0.00,,,0.00,VWS V14.01,2013-08-23 13:10:00,
2013-08-23 09:12:00,72.1,66.7,30.07,NNW,334,0.0,1.0,83,0.00,,,0.00,VWS V14.01,2013-08-23 13:12:00,
2013-08-23 09:17:00,72.3,66.8,30.07,NNW,334,0.0,1.0,83,0.00,,,0.00,VWS V14.01,2013-08-23 13:17:00,
2013-08-23 09:20:00,73.0,66.5,30.07,NNW,335,0.0,1.0,80,0.00,,,0.00,VWS V14.01,2013-08-23 13:20:00,
2013-08-23 09:22:00,72.3,66.5,30.07,NNW,334,0.0,1.0,82,0.00,,,0.00,VWS V14.01,2013-08-23 13:22:00,
2013-08-23 09:28:00,72.5,66.7,30.07,NNW,334,0.0,1.0,82,0.00,,,0.00,VWS V14.01,2013-08-23 13:28:00,
2013-08-23 09:30:00,74.4,66.7,30.07,NNW,335,0.0,1.0,77,0.00,,,0.00,VWS V14.01,2013-08-23 13:30:00,
2013-08-23 09:33:00,72.7,66.9,30.07,NNW,335,0.0,1.0,82,0.00,,,0.00,VWS V14.01,2013-08-23 13:33:00,
2013-08-23 09:38:00,72.7,66.5,30.07,NNW,335,0.0,1.0,81,0.00,,,0.00,VWS V14.01,2013-08-23 13:38:00,
2013-08-23 09:40:00,75.1,67.0,30.07,NNW,335,0.0,1.0,76,0.00,,,0.00,VWS V14.01,2013-08-23 13:40:00,
2013-08-23 09:43:00,72.8,66.6,30.07,NNW,335,0.0,1.0,81,0.00,,,0.00,VWS V14.01,2013-08-23 13:43:00,
2013-08-23 09:48:00,72.8,66.6,30.07,NNW,335,0.0,1.0,81,0.00,,,0.00,VWS V14.01,2013-08-23 13:48:00,
2013-08-23 09:50:00,75.8,67.3,30.08,NNW,335,0.0,1.0,75,0.00,,,0.00,VWS V14.01,2013-08-23 13:50:00,
2013-08-23 09:53:00,73.0,67.5,30.07,NNW,335,0.0,1.0,83,0.00,,,0.00,VWS V14.01,2013-08-23 13:53:00,
2013-08-23 09:58:00,73.0,67.2,30.07,NNW,335,0.0,1.0,82,0.00,,,0.00,VWS V14.01,2013-08-23 13:58:00,
2013-08-23 10:00:00,76.3,67.4,30.08,NNW,335,0.0,1.0,74,0.00,,,0.00,VWS V14.01,2013-08-23 14:00:00,
2013-08-23 10:03:00,72.8,66.6,30.07,NNW,335,0.0,1.0,81,0.00,,,0.00,VWS V14.01,2013-08-23 14:03:00,
2013-08-23 10:08:00,72.8,66.6,30.07,NNW,335,0.0,1.0,81,0.00,,,0.00,VWS V14.01,2013-08-23 14:08:00,
2013-08-23 10:10:00,76.1,67.2,30.08,NNW,335,0.0,1.0,74,0.00,,,0.00,VWS V14.01,2013-08-23 14:10:00,
2013-08-23 10:13:00,72.8,66.6,30.07,NNW,335,0.0,1.0,81,0.00,,,0.00,VWS V14.01,2013-08-23 14:13:00,
2013-08-23 10:18:00,72.8,66.6,30.07,NNW,335,0.0,1.0,81,0.00,,,0.00,VWS V14.01,2013-08-23 14:18:00,
2013-08-23 10:20:00,76.3,67.4,30.08,NNW,335,0.0,1.0,74,0.00,,,0.00,VWS V14.01,2013-08-23 14:20:00,
2013-08-23 10:23:00,73.0,66.8,30.07,NNW,335,0.0,1.0,81,0.00,,,0.00,VWS V14.01,2013-08-23 14:23:00,
2013-08-23 10:28:00,73.5,66.6,30.07,NNW,335,0.0,1.0,79,0.00,,,0.00,VWS V14.01,2013-08-23 14:28:00,
2013-08-23 10:30:00,76.8,66.7,30.08,NNW,335,0.0,1.0,71,0.00,,,0.00,VWS V14.01,2013-08-23 14:30:00,
2013-08-23 10:33:00,74.2,66.5,30.07,NNW,335,0.0,1.0,77,0.00,,,0.00,VWS V14.01,2013-08-23 14:33:00,
2013-08-23 10:38:00,74.7,67.0,30.07,NNW,335,0.0,1.0,77,0.00,,,0.00,VWS V14.01,2013-08-23 14:38:00,
2013-08-23 10:40:00,78.1,67.5,30.08,NNW,335,0.0,1.0,70,0.00,,,0.00,VWS V14.01,2013-08-23 14:40:00,
2013-08-23 10:43:00,75.1,67.0,30.07,NNW,335,0.0,1.0,76,0.00,,,0.00,VWS V14.01,2013-08-23 14:43:00,
2013-08-23 10:48:00,75.4,66.9,30.07,NNW,335,0.0,1.0,75,0.00,,,0.00,VWS V14.01,2013-08-23 14:48:00,
2013-08-23 10:50:00,79.6,66.8,30.08,NNW,335,1.0,1.0,65,0.00,,,0.00,VWS V14.01,2013-08-23 14:50:00,
2013-08-23 10:53:00,75.8,67.3,30.08,NNW,335,0.0,1.0,75,0.00,,,0.00,VWS V14.01,2013-08-23 14:53:00,
2013-08-23 10:58:00,76.0,67.1,30.08,NNW,335,0.0,1.0,74,0.00,,,0.00,VWS V14.01,2013-08-23 14:58:00,
2013-08-23 11:00:00,80.5,66.8,30.08,NNW,335,0.0,1.0,63,0.00,,,0.00,VWS V14.01,2013-08-23 15:00:00,
2013-08-23 11:03:00,76.3,67.4,30.08,NNW,335,0.0,1.0,74,0.00,,,0.00,VWS V14.01,2013-08-23 15:03:00,
2013-08-23 11:08:00,76.3,67.0,30.08,NNW,335,0.0,1.0,73,0.00,,,0.00,VWS V14.01,2013-08-23 15:08:00,
2013-08-23 11:10:00,81.4,65.7,30.08,NNW,335,0.0,1.0,59,0.00,,,0.00,VWS V14.01,2013-08-23 15:10:00,
2013-08-23 11:13:00,76.3,67.4,30.08,NNW,335,0.0,1.0,74,0.00,,,0.00,VWS V14.01,2013-08-23 15:13:00,
2013-08-23 11:18:00,76.1,67.2,30.08,NNW,335,0.0,1.0,74,0.00,,,0.00,VWS V14.01,2013-08-23 15:18:00,
2013-08-23 11:20:00,81.8,66.1,30.07,NNW,335,0.0,1.0,59,0.00,,,0.00,VWS V14.01,2013-08-23 15:20:00,
2013-08-23 11:23:00,76.1,67.2,30.08,NNW,335,0.0,1.0,74,0.00,,,0.00,VWS V14.01,2013-08-23 15:23:00,
2013-08-23 11:28:00,76.5,67.2,30.08,NNW,335,0.0,1.0,73,0.00,,,0.00,VWS V14.01,2013-08-23 15:28:00,
2013-08-23 11:30:00,82.0,66.3,30.08,NNW,344,0.0,1.0,59,0.00,,,0.00,VWS V14.01,2013-08-23 15:30:00,
2013-08-23 11:33:00,76.7,67.0,30.08,NNW,335,0.0,1.0,72,0.00,,,0.00,VWS V14.01,2013-08-23 15:33:00,
2013-08-23 11:38:00,77.2,67.1,30.08,NNW,335,0.0,1.0,71,0.00,,,0.00,VWS V14.01,2013-08-23 15:38:00,
2013-08-23 11:40:00,81.6,65.4,30.08,WNW,296,0.0,1.0,58,0.00,,,0.00,VWS V14.01,2013-08-23 15:40:00,
2013-08-23 11:43:00,77.9,67.8,30.08,NNW,335,0.0,1.0,71,0.00,,,0.00,VWS V14.01,2013-08-23 15:43:00,
2013-08-23 11:48:00,78.6,67.6,30.08,NNW,335,0.0,1.0,69,0.00,,,0.00,VWS V14.01,2013-08-23 15:48:00,
2013-08-23 11:50:00,81.6,64.4,30.07,WNW,300,3.0,3.0,56,0.00,,,0.00,VWS V14.01,2013-08-23 15:50:00,
2013-08-23 11:53:00,79.6,67.7,30.08,NNW,335,0.0,1.0,67,0.00,,,0.00,VWS V14.01,2013-08-23 15:53:00,
2013-08-23 11:58:00,80.1,66.8,30.08,NNW,335,0.0,1.0,64,0.00,,,0.00,VWS V14.01,2013-08-23 15:58:00,
2013-08-23 12:00:00,82.4,65.1,30.07,NNE,12,2.0,2.0,56,0.00,,,0.00,VWS V14.01,2013-08-23 16:00:00,
2013-08-23 12:03:00,80.3,66.6,30.08,NNW,335,0.0,1.0,63,0.00,,,0.00,VWS V14.01,2013-08-23 16:03:00,
2013-08-23 12:08:00,80.9,65.7,30.08,NNW,335,0.0,1.0,60,0.00,,,0.00,VWS V14.01,2013-08-23 16:08:00,
2013-08-23 12:10:00,82.8,65.0,30.07,NNW,346,0.0,1.0,55,0.00,,,0.00,VWS V14.01,2013-08-23 16:10:00,
2013-08-23 12:13:00,81.4,65.7,30.08,NNW,335,0.0,1.0,59,0.00,,,0.00,VWS V14.01,2013-08-23 16:13:00,
2013-08-23 12:18:00,81.4,66.7,30.08,NNW,335,0.0,1.0,61,0.00,,,0.00,VWS V14.01,2013-08-23 16:18:00,
2013-08-23 12:20:00,83.4,65.0,30.07,ENE,68,0.0,2.0,54,0.00,,,0.00,VWS V14.01,2013-08-23 16:20:00,
2013-08-23 12:23:00,81.6,65.9,30.07,NNW,335,0.0,1.0,59,0.00,,,0.00,VWS V14.01,2013-08-23 16:23:00,
2013-08-23 12:28:00,82.6,66.3,30.07,NNW,335,0.0,1.0,58,0.00,,,0.00,VWS V14.01,2013-08-23 16:28:00,
2013-08-23 12:30:00,83.0,65.2,30.07,ENE,68,0.0,2.0,55,0.00,,,0.00,VWS V14.01,2013-08-23 16:30:00,
2013-08-23 12:33:00,82.0,65.8,30.07,NNW,344,0.0,1.0,58,0.00,,,0.00,VWS V14.01,2013-08-23 16:33:00,
2013-08-23 12:38:00,81.6,64.9,30.08,NNW,344,0.0,1.0,57,0.00,,,0.00,VWS V14.01,2013-08-23 16:38:00,
2013-08-23 12:40:00,83.0,64.1,30.07,West,270,0.0,4.0,53,0.00,,,0.00,VWS V14.01,2013-08-23 16:40:00,
2013-08-23 12:43:00,81.6,65.4,30.08,WNW,296,0.0,1.0,58,0.00,,,0.00,VWS V14.01,2013-08-23 16:43:00,
2013-08-23 12:48:00,81.8,65.6,30.08,WNW,296,0.0,1.0,58,0.00,,,0.00,VWS V14.01,2013-08-23 16:48:00,
2013-08-23 12:50:00,82.0,65.3,30.06,North,0,0.0,4.0,57,0.00,,,0.00,VWS V14.01,2013-08-23 16:50:00,
2013-08-23 12:53:00,81.6,64.4,30.07,WNW,296,0.0,1.0,56,0.00,,,0.00,VWS V14.01,2013-08-23 16:53:00,
2013-08-23 12:58:00,81.8,65.1,30.07,WNW,300,0.0,1.0,57,0.00,,,0.00,VWS V14.01,2013-08-23 16:58:00,
2013-08-23 13:00:00,83.4,65.6,30.06,North,0,0.0,3.0,55,0.00,,,0.00,VWS V14.01,2013-08-23 17:00:00,
2013-08-23 13:03:00,82.2,65.0,30.07,ENE,61,0.0,1.0,56,0.00,,,0.00,VWS V14.01,2013-08-23 17:03:00,
2013-08-23 13:08:00,81.8,64.6,30.07,NNW,346,0.0,1.0,56,0.00,,,0.00,VWS V14.01,2013-08-23 17:08:00,
2013-08-23 13:10:00,82.6,65.3,30.06,North,0,1.0,5.0,56,0.00,,,0.00,VWS V14.01,2013-08-23 17:10:00,
2013-08-23 13:13:00,82.6,64.3,30.07,NNW,346,0.0,1.0,54,0.00,,,0.00,VWS V14.01,2013-08-23 17:13:00,
2013-08-23 13:18:00,83.2,65.9,30.07,NNW,346,0.0,1.0,56,0.00,,,0.00,VWS V14.01,2013-08-23 17:18:00,
2013-08-23 13:20:00,82.6,64.8,30.06,North,0,0.0,3.0,55,0.00,,,0.00,VWS V14.01,2013-08-23 17:20:00,
2013-08-23 13:30:00,81.4,65.2,30.06,NNW,338,1.0,5.0,58,0.00,,,0.00,VWS V14.01,2013-08-23 17:30:00,
2013-08-23 13:40:00,81.8,65.1,30.06,North,0,0.0,5.0,57,0.00,,,0.00,VWS V14.01,2013-08-23 17:40:00,
2013-08-23 13:50:00,81.4,63.2,30.06,NNW,338,1.0,5.0,54,0.00,,,0.00,VWS V14.01,2013-08-23 17:50:00,
2013-08-23 14:00:00,82.0,64.8,30.05,NNW,338,0.0,4.0,56,0.00,,,0.00,VWS V14.01,2013-08-23 18:00:00,
2013-08-23 14:10:00,82.2,62.8,30.05,NNW,338,0.0,3.0,52,0.00,,,0.00,VWS V14.01,2013-08-23 18:10:00,
2013-08-23 14:20:00,83.0,62.5,30.05,North,0,0.0,2.0,50,0.00,,,0.00,VWS V14.01,2013-08-23 18:20:00,
2013-08-23 14:30:00,82.8,61.7,30.04,North,0,0.0,4.0,49,0.00,,,0.00,VWS V14.01,2013-08-23 18:30:00,
2013-08-23 14:40:00,82.4,61.9,30.04,NNW,338,1.0,5.0,50,0.00,,,0.00,VWS V14.01,2013-08-23 18:40:00,
2013-08-23 14:50:00,82.4,61.3,30.04,NNW,338,0.0,2.0,49,0.00,,,0.00,VWS V14.01,2013-08-23 18:50:00,
2013-08-23 15:00:00,82.4,60.8,30.04,NNW,338,1.0,5.0,48,0.00,,,0.00,VWS V14.01,2013-08-23 19:00:00,
2013-08-23 15:10:00,83.0,61.3,30.04,NNW,338,0.0,2.0,48,0.00,,,0.00,VWS V14.01,2013-08-23 19:10:00,
2013-08-23 15:20:00,83.0,61.9,30.03,NNW,338,0.0,3.0,49,0.00,,,0.00,VWS V14.01,2013-08-23 19:20:00,
2013-08-23 15:30:00,83.0,63.0,30.03,NNW,338,1.0,5.0,51,0.00,,,0.00,VWS V14.01,2013-08-23 19:30:00,
2013-08-23 15:40:00,82.6,61.5,30.03,NNW,338,0.0,4.0,49,0.00,,,0.00,VWS V14.01,2013-08-23 19:40:00,
2013-08-23 15:50:00,82.4,60.8,30.02,NW,315,0.0,3.0,48,0.00,,,0.00,VWS V14.01,2013-08-23 19:50:00,
2013-08-23 16:00:00,82.4,62.5,30.02,NW,315,1.0,5.0,51,0.00,,,0.00,VWS V14.01,2013-08-23 20:00:00,
2013-08-23 16:10:00,82.2,61.7,30.02,NNW,338,1.0,5.0,50,0.00,,,0.00,VWS V14.01,2013-08-23 20:10:00,
2013-08-23 16:20:00,82.2,61.7,30.02,NW,315,0.0,3.0,50,0.00,,,0.00,VWS V14.01,2013-08-23 20:20:00,
2013-08-23 16:30:00,82.2,61.2,30.02,NNW,338,1.0,4.0,49,0.00,,,0.00,VWS V14.01,2013-08-23 20:30:00,
2013-08-23 16:40:00,82.0,63.2,30.02,NNW,338,0.0,3.0,53,0.00,,,0.00,VWS V14.01,2013-08-23 20:40:00,
2013-08-23 16:50:00,82.0,63.2,30.02,North,0,0.0,3.0,53,0.00,,,0.00,VWS V14.01,2013-08-23 20:50:00,
2013-08-23 17:00:00,81.8,62.5,30.03,NNW,338,1.0,6.0,52,0.00,,,0.00,VWS V14.01,2013-08-23 21:00:00,
2013-08-23 17:10:00,81.6,62.3,30.03,WNW,292,1.0,4.0,52,0.00,,,0.00,VWS V14.01,2013-08-23 21:10:00,
2013-08-23 17:20:00,81.6,62.8,30.04,NE,45,0.0,3.0,53,0.00,,,0.00,VWS V14.01,2013-08-23 21:20:00,
2013-08-23 17:30:00,81.4,62.1,30.04,NNW,338,0.0,5.0,52,0.00,,,0.00,VWS V14.01,2013-08-23 21:30:00,
2013-08-23 17:40:00,81.1,62.9,30.04,North,0,0.0,2.0,54,0.00,,,0.00,VWS V14.01,2013-08-23 21:40:00,
2013-08-23 17:50:00,80.7,62.5,30.04,ENE,68,0.0,4.0,54,0.00,,,0.00,VWS V14.01,2013-08-23 21:50:00,
2013-08-23 18:00:00,80.5,62.9,30.04,ENE,68,0.0,2.0,55,0.00,,,0.00,VWS V14.01,2013-08-23 22:00:00,
2013-08-23 18:10:00,80.1,63.0,30.04,NNE,22,0.0,2.0,56,0.00,,,0.00,VWS V14.01,2013-08-23 22:10:00,
2013-08-23 18:20:00,79.9,63.3,30.04,ENE,68,0.0,2.0,57,0.00,,,0.00,VWS V14.01,2013-08-23 22:20:00,
2013-08-23 18:30:00,79.9,63.3,30.05,ENE,68,0.0,1.0,57,0.00,,,0.00,VWS V14.01,2013-08-23 22:30:00,
2013-08-23 18:40:00,79.8,62.7,30.05,East,90,0.0,3.0,56,0.00,,,0.00,VWS V14.01,2013-08-23 22:40:00,
2013-08-23 18:50:00,79.4,63.3,30.04,ENE,68,0.0,3.0,58,0.00,,,0.00,VWS V14.01,2013-08-23 22:50:00,
2013-08-23 19:00:00,79.0,63.0,30.04,ENE,68,0.0,2.0,58,0.00,,,0.00,VWS V14.01,2013-08-23 23:00:00,
2013-08-23 19:10:00,78.8,63.3,30.04,ENE,68,0.0,1.0,59,0.00,,,0.00,VWS V14.01,2013-08-23 23:10:00,
2013-08-23 19:20:00,78.5,63.5,30.05,ENE,68,0.0,0.0,60,0.00,,,0.00,VWS V14.01,2013-08-23 23:20:00,
2013-08-23 19:30:00,78.1,63.1,30.05,ENE,68,0.0,0.0,60,0.00,,,0.00,VWS V14.01,2013-08-23 23:30:00,
2013-08-23 19:40:00,77.9,63.4,30.05,ENE,68,0.0,1.0,61,0.00,,,0.00,VWS V14.01,2013-08-23 23:40:00,
2013-08-23 19:50:00,77.7,63.7,30.06,ENE,68,0.0,0.0,62,0.00,,,0.00,VWS V14.01,2013-08-23 23:50:00,
2013-08-23 20:00:00,77.6,64.0,30.06,North,0,0.0,2.0,63,0.00,,,0.00,VWS V14.01,2013-08-24 00:00:00,
2013-08-23 20:10:00,77.2,64.1,30.06,NNW,338,0.0,1.0,64,0.00,,,0.00,VWS V14.01,2013-08-24 00:10:00,
2013-08-23 20:20:00,76.8,64.2,30.07,NNW,338,0.0,1.0,65,0.00,,,0.00,VWS V14.01,2013-08-24 00:20:00,
2013-08-23 20:30:00,76.5,63.9,30.08,NNW,338,0.0,1.0,65,0.00,,,0.00,VWS V14.01,2013-08-24 00:30:00,
2013-08-23 20:40:00,76.3,63.7,30.08,NNW,338,0.0,1.0,65,0.00,,,0.00,VWS V14.01,2013-08-24 00:40:00,
2013-08-23 20:50:00,76.0,63.4,30.09,NNE,22,0.0,2.0,65,0.00,,,0.00,VWS V14.01,2013-08-24 00:50:00,
2013-08-23 21:00:00,75.8,63.6,30.09,NNE,22,0.0,1.0,66,0.00,,,0.00,VWS V14.01,2013-08-24 01:00:00,
2013-08-23 21:10:00,75.6,63.5,30.09,NNE,22,0.0,1.0,66,0.00,,,0.00,VWS V14.01,2013-08-24 01:10:00,
2013-08-23 21:20:00,75.3,63.6,30.09,NW,315,0.0,2.0,67,0.00,,,0.00,VWS V14.01,2013-08-24 01:20:00,
2013-08-23 21:30:00,75.1,63.0,30.10,NNW,338,0.0,1.0,66,0.00,,,0.00,VWS V14.01,2013-08-24 01:30:00,
2013-08-23 21:40:00,74.9,62.8,30.10,North,0,0.0,2.0,66,0.00,,,0.00,VWS V14.01,2013-08-24 01:40:00,
2013-08-23 21:50:00,74.6,62.9,30.10,North,0,0.0,1.0,67,0.00,,,0.00,VWS V14.01,2013-08-24 01:50:00,
2013-08-23 22:00:00,74.4,63.2,30.10,North,0,0.0,1.0,68,0.00,,,0.00,VWS V14.01,2013-08-24 02:00:00,
2013-08-23 22:10:00,74.0,62.8,30.10,North,0,0.0,0.0,68,0.00,,,0.00,VWS V14.01,2013-08-24 02:10:00,
2013-08-23 22:20:00,73.7,62.5,30.11,North,0,0.0,0.0,68,0.00,,,0.00,VWS V14.01,2013-08-24 02:20:00,
2013-08-23 22:30:00,73.3,62.1,30.11,North,0,0.0,0.0,68,0.00,,,0.00,VWS V14.01,2013-08-24 02:30:00,
2013-08-23 22:40:00,73.0,61.8,30.11,North,0,0.0,1.0,68,0.00,,,0.00,VWS V14.01,2013-08-24 02:40:00,
2013-08-23 22:50:00,72.7,61.5,30.11,North,0,0.0,0.0,68,0.00,,,0.00,VWS V14.01,2013-08-24 02:50:00,
2013-08-23 23:00:00,72.3,61.6,30.11,North,0,0.0,0.0,69,0.00,,,0.00,VWS V14.01,2013-08-24 03:00:00,
2013-08-23 23:10:00,72.0,62.1,30.11,North,0,0.0,0.0,71,0.00,,,0.00,VWS V14.01,2013-08-24 03:10:00,
2013-08-23 23:20:00,71.6,61.7,30.11,North,0,0.0,0.0,71,0.00,,,0.00,VWS V14.01,2013-08-24 03:20:00,
2013-08-23 23:30:00,71.5,61.6,30.11,North,0,0.0,0.0,71,0.00,,,0.00,VWS V14.01,2013-08-24 03:30:00,
2013-08-23 23:40:00,71.1,61.6,30.11,North,0,0.0,1.0,72,0.00,,,0.00,VWS V14.01,2013-08-24 03:40:00,
2013-08-23 23:50:00,70.9,61.8,30.11,North,0,0.0,0.0,73,0.00,,,0.00,VWS V14.01,2013-08-24 03:50:00,